Lid_Strength_Index
3 3 3 3 3 3 3 3 3 3 3 3 3 3 3 3 3 3 3 3 3 3 3 3 2 1 1 4 4 -0 -1 -1 -0 0 2 3 4 5 6 6 5 6 6 6 5 5 5
3 3 3 3 3 3 3 3 3 3 3 3 4 4 4 4 4 3 3 3 4 3 3 3 2 1 2 6 0 -1 -1 -0 0 1 2 3 3 3 5 5 6 5 6 6 5 5 5
3 3 3 3 3 3 3 3 3 3 4 4 4 4 4 4 4 3 3 4 4 3 3 2 1 0 4 5 -0 -1 -0 0 0 1 3 2 3 4 4 5 4 5 7 6 6 6 6
3 3 3 3 3 3 3 4 4 4 4 4 4 4 4 4 4 4 4 4 4 3 1 1 1 1 5 -0 -1 -0 -0 1 0 0 2 2 3 3 4 3 5 7 7 8 6 6 6
3 3 3 3 3 4 4 3 3 4 4 4 4 4 4 4 4 4 4 4 3 0 1 0 1 2 5 0 2 0 0 2 1 1 1 1 3 4 4 6 7 6 9 8 8 6 7
3 3 3 3 3 3 3 3 3 3 4 4 4 4 4 4 4 4 5 4 2 1 -0 -0 1 4 3 4 1 1 0 1 3 2 4 5 4 5 5 6 10 9 9 8 8 7 7
3 3 3 3 3 3 3 3 4 4 4 4 4 4 4 4 5 5 4 1 2 3 2 4 4 5 4 1 1 2 1 2 2 4 6 4 7 8 7 6 7 8 8 8 7 6 8
2 2 3 3 3 3 3 3 4 4 4 4 3 4 4 4 4 5 3 2 2 2 5 3 3 3 2 2 4 3 1 4 4 6 5 6 8 6 6 6 7 8 8 7 7 6 7
1 2 2 2 3 3 3 3 4 3 3 3 3 4 4 4 4 3 2 2 1 1 4 5 4 4 3 2 4 4 2 3 5 6 6 7 6 7 7 7 8 8 8 7 8 8 7
1 2 2 2 2 2 2 3 3 3 3 3 3 4 4 5 4 1 2 1 1 1 6 6 5 4 3 2 4 2 1 3 5 6 6 6 5 6 6 7 7 8 7 7 8 8 9
2 2 2 2 2 2 3 3 3 3 4 4 4 4 5 5 2 2 1 1 1 2 11 5 5 2 2 4 4 4 2 3 6 5 6 7 8 8 8 7 6 7 6 6 7 7 7
2 2 2 2 2 2 3 3 3 3 4 4 4 4 5 4 2 1 1 1 2 8 12 7 5 5 5 4 4 3 4 2 3 5 5 6 6 7 7 7 7 6 7 6 6 7 10
2 2 2 2 2 3 3 3 3 3 5 5 5 5 5 2 2 0 0 2 8 9 6 7 6 5 5 6 5 5 5 6 6 8 8 6 6 7 7 8 6 7 7 9 10 10 11
2 2 2 2 2 3 3 3 3 4 5 5 6 6 4 2 -0 0 1 5 10 8 7 6 6 5 7 6 6 6 6 7 5 6 7 8 9 6 6 7 7 7 7 9 13 11 10
2 2 2 2 3 3 3 3 4 4 5 5 6 1 0 0 0 1 4 7 8 7 6 6 6 7 7 6 6 6 6 7 6 5 8 7 9 5 6 6 7 7 8 6 9 8 10
2 2 2 2 3 3 3 3 5 5 6 6 1 1 1 1 1 2 5 9 7 5 5 6 8 7 8 7 7 7 7 6 7 5 4 6 9 6 6 5 6 6 6 8 8 11 12
2 2 2 2 3 3 3 3 4 5 6 6 1 3 1 1 2 3 7 7 6 4 4 6 7 7 7 8 7 7 7 6 6 6 5 5 7 7 6 7 7 7 7 7 7 8 10
2 2 2 2 2 2 2 3 4 6 6 6 2 5 0 1 4 4 6 6 7 5 4 5 5 6 7 7 8 8 8 7 5 5 6 5 6 7 8 6 5 6 7 7 9 10 8
2 2 2 2 2 2 3 3 4 5 6 1 3 3 -0 1 6 6 5 6 5 5 5 6 6 6 6 7 9 7 7 5 5 5 6 5 7 9 9 7 6 7 6 6 7 7 9
2 2 2 2 2 2 3 3 4 5 6 2 3 6 3 3 3 5 6 7 7 4 5 5 6 5 6 7 6 8 7 6 5 5 4 4 6 8 9 8 7 8 8 6 7 9 9
1 2 2 2 2 2 3 3 4 5 5 2 3 6 5 6 6 5 5 6 7 7 5 5 6 6 7 8 7 7 6 6 5 4 5 5 8 7 7 7 7 7 8 7 7 7 8
1 2 2 2 2 2 3 3 4 5 5 1 4 5 3 5 5 5 7 7 7 6 6 7 7 6 6 8 7 8 7 6 7 5 6 5 8 7 8 7 7 8 8 7 8 8 7
2 1 2 2 2 2 3 3 4 5 4 2 1 1 4 7 6 6 6 7 7 6 5 5 6 6 7 6 5 5 4 4 5 6 6 6 7 8 9 8 8 10 7 7 8 7 7
2 2 2 2 2 2 2 3 3 4 5 1 2 2 5 6 5 6 6 6 6 6 6 5 5 6 5 3 3 4 4 4 5 5 5 6 7 8 9 9 13 8 6 7 8 7 7
2 2 2 2 2 2 2 2 3 4 5 1 1 2 4 5 5 6 6 6 5 5 5 5 4 3 2 4 6 8 7 8 7 6 6 5 6 9 11 11 8 8 7 8 8 8 6
2 2 2 2 2 2 2 2 2 3 4 1 2 1 2 6 5 5 5 5 6 5 5 5 3 2 3 5 6 11 9 9 10 9 5 6 6 8 9 11 13 9 7 5 6 10 6
2 2 2 2 2 2 2 2 2 3 4 2 2 1 2 5 3 4 5 6 4 5 6 4 5 4 4 6 8 8 8 8 10 11 10 9 8 9 9 10 9 7 6 5 11 10 6
3 3 3 2 2 2 2 2 2 3 3 3 2 1 2 4 3 3 3 4 4 4 6 5 5 5 5 8 8 7 8 8 9 8 9 10 10 10 9 11 12 5 6 9 7 5 5
4 4 3 3 3 2 2 3 3 3 3 4 1 1 2 3 3 2 2 2 2 3 4 3 5 5 5 6 6 6 8 7 9 10 7 10 8 9 9 9 6 5 5 4 4 5 4